Flag for Oman Weather past 2 weeks in Salalah, Oman

Now
79 °F

Clear.


Feels Like: 78 °F
Forecast: 69 / 86 °F
Wind: 10 mph from North

Location: Salalah Airport

Current Time: Dec 19, 2014 at 9:41:06 PM

Latest Report: Dec 19, 2014 at 8:50 PM


Visibility: 10 mi

Pressure: 30.12 "Hg

Humidity: 24%

Dew point: 39 °F

Location of SalalahLocation

Historic Weather in Salalah — Graph

°F

Salalah temperature yesterday

Maximum temperature yesterday: 84 °F (at 12:50 PM)
Minimum temperature yesterday: 70 °F (at 5:50 AM)
Average temperature yesterday: 77 °F

Past Weeks' High & Low Weather Summary

 TemperatureHumidityPressure
High90 °F (Dec 11, 12:50 PM)69% (Dec 15, 12:50 AM)30.15 "Hg (Dec 15, 12:50 AM)
Low68 °F (Dec 14, 4:50 AM)11% (Dec 12, 7:50 PM)29.92 "Hg (Dec 6, 2:50 PM)
Average78 °F41%30.03 "Hg
* Reported Dec 4 7:50 PM — Dec 19 7:50 PM, Salalah, Weather by CustomWeather, © 2014

Note: Actual official high and low records may vary slightly from our data, if they occured in-between our weather recording intervals... More about our weather records

Advertising

Salalah weather history for previous 24 hours

 ConditionsComfort  
Time TempWeatherWind HumidityBarometerVisibility
7:50 PM
Dec 19
79 °FClear.10 mph24%30.09 "Hg10 mi
6:50 PM81 °FPleasantly warm.12 mph21%30.07 "HgN/A
5:50 PM82 °FPassing clouds.15 mph20%30.04 "HgN/A
4:50 PM81 °FPassing clouds.7 mph42%30.04 "HgN/A
3:50 PM82 °FPleasantly warm.13 mph37%30.01 "HgN/A
2:50 PM86 °FPassing clouds.18 mph19%30.01 "HgN/A
1:50 PM86 °FPassing clouds.21 mph19%30.04 "HgN/A
12:50 PM86 °FSunny.23 mph22%30.07 "Hg10 mi
11:50 AM82 °FPassing clouds.20 mph26%30.09 "HgN/A
10:50 AM81 °FPassing clouds.17 mph30%30.12 "HgN/A
9:50 AM79 °FPleasantly warm.16 mph32%30.15 "HgN/A
8:50 AM75 °FPassing clouds.10 mph39%30.15 "HgN/A
7:50 AM73 °FSunny.13 mph41%30.12 "Hg10 mi
6:50 AM72 °FSunny.10 mph38%30.12 "Hg10 mi
5:50 AM73 °FClear.12 mph33%30.09 "Hg10 mi
4:50 AM73 °FMild.8 mph31%30.07 "HgN/A
3:50 AM73 °FMild.12 mph31%30.07 "HgN/A
2:50 AM73 °FMild.9 mph33%30.07 "HgN/A
1:50 AM72 °FClear.7 mph33%30.09 "Hg10 mi
12:50 AM73 °FMild.9 mph31%30.09 "HgN/A
11:50 PM
Dec 18
73 °FMild.8 mph31%30.09 "HgN/A
10:50 PM75 °FMild.9 mph29%30.09 "HgN/A
9:50 PM75 °FMild.8 mph29%30.09 "HgN/A
Weather by CustomWeather, © 2014

See weather overviewHow to use our weather pages